Regional Weather Roundup
Issued by NWS

Home | Current Version | Previous Version | Text Only | Print | Product List | Glossary On
Versions: 1 2 3 4 5 6 7 8 9 10 11 12 13 14 15 16 17 18 19 20 21 22 23 24 25 26 27 28 29 30 31 32 33 34 35 36 37 38 39 40 41 42 43 44 45 46 47 48 49 50
000
ASUS42 KFFC 172210
RWRGA
WEATHER ROUNDUP FOR GEORGIA
NATIONAL WEATHER SERVICE PEACHTREE CITY GA
500 PM EST SUN DEC 17 2017

NOTE: "FAIR" INDICATES FEW OR NO CLOUDS BELOW 12,000 FEET WITH NO
SIGNIFICANT WEATHER AND/OR OBSTRUCTIONS TO VISIBILITY.

* = USE WITH CAUTION. THE STATIONS MARKED WITH AN ASTERISK MAY NOT
REPORT WEATHER SUCH AS PRECIPITATION, FOG, OR THUNDER AND ARE NOT
QUALITY CONTROLLED BY NWS.

THE REMARK "TC" DENOTES TEMPERATURE READING IN DEGREES CELSIUS.

GAZ001>058-172300-
NORTH GEORGIA

CITY           SKY/WX    TMP DP  RH WIND       PRES   REMARKS
ATLANTA        CLOUDY    45  43  93 E5        30.17S FOG
ATHENS         LGT RAIN  46  43  89 NE3       30.18F
CHAMBLEE       CLOUDY    43  41  93 CALM      30.17S FOG
PEACHTREE CITY CLOUDY    47  44  90 E3        30.17R
ROME           CLOUDY    43  42  97 NE3       30.17R
WEST ATLANTA   CLOUDY    45  44  97 CALM      30.17F
GAINESVILLE    LGT RAIN  43  42  97 SE5       30.18F FOG
CARTERSVILLE   CLOUDY    44  44 100 CALM      30.19R FOG


CITY           SKY/WX    TMP DP  RH WIND       PRES   REMARKS
DALTON*        CLOUDY    41  41 100 CALM      30.17S
LAWRENCEVILLE* CLOUDY    43  43 100 NE5       30.18S
MARIETTA       CLOUDY    44  42  93 E3        30.16S FOG
KENNESAW*      CLOUDY    45  43  93 E6        30.17S FOG
CANTON*        CLOUDY    45  45 100 E3        30.18R FOG
$$

GAZ059>098-102>109-172300-
CENTRAL GEORGIA

CITY           SKY/WX    TMP DP  RH WIND       PRES   REMARKS
AUGUSTA-BUSH   CLOUDY    60  36  40 CALM      30.17F
AUGUSTA-DANIEL CLOUDY    58  35  42 NE3       30.17F
COLUMBUS       LGT RAIN  58  52  80 N3        30.16R
MACON          MOCLDY    62  45  53 CALM      30.16R
ROBINS AFB     MOCLDY    62  47  58 S3        30.15R


CITY           SKY/WX    TMP DP  RH WIND       PRES   REMARKS
LAGRANGE*      LGT RAIN  48  48  99 CALM      30.16F
SYLVANIA*      CLOUDY    63  45  52 CALM      30.20F
MILLEDGEVILLE* MOCLDY    59  46  63 CALM      30.17R
$$

GAZ099>101-110>166-172300-
SOUTH GEORGIA

CITY           SKY/WX    TMP DP  RH WIND       PRES   REMARKS
SAVANNAH       MOCLDY    63  46  54 E6        30.22S
VALDOSTA       CLEAR     72  58  61 VRB7      30.18F
ALMA           PTCLDY    72  56  57 S6        30.18S
ST SIMONS      CLEAR     61  48  62 E5        30.21F
FT STEWART     PTCLDY    68  53  58 SE3         N/A
ALBANY         CLOUDY    73  56  54 S14       30.16S
HUNTER AFB     MOCLDY    63  46  54 SE3       30.19F
MOODY AFB      CLEAR     73  57  57 SW5       30.16F
BRUNSWICK      CLEAR     64  50  59 SE3       30.21F


CITY           SKY/WX    TMP DP  RH WIND       PRES   REMARKS
BAINBRIDGE*    CLOUDY    73  61  64 S8        30.17R
MOULTRIE*      CLOUDY    70  59  68 S6        30.18S
VIDALIA*       CLOUDY    64  52  63 SE5       30.17F
WAYCROSS*      CLEAR     71  55  55 SW3       30.19S
DOUGLAS*       PTCLDY    70  55  60 SW5       30.19S
$$




USA.gov is the U.S. government's official web portal to all federal, state and local government web resources and services.